• In Czech Republic
  • List of Countries
  • For 7 days
  • Water Temperature
  • Satellite Maps
  • Weather Map
  • Weather Widgets
  • user-avatar
    Login

    Hourly Weather Sevan

    Today, 26 September, Tuesday

    Time Temperature Precipitation Wind Pressure Humidity
    00:00 +14°C° 0 mm 2 mps 644 mmHg 73%
    01:00 +14°C° 0 mm 2 mps 644 mmHg 74%
    02:00 +14°C° 0 mm 2 mps 644 mmHg 76%
    03:00 +13°C° 0 mm 1 mps 644 mmHg 77%
    04:00 +13°C° 0 mm 1 mps 643 mmHg 78%
    05:00 +12°C° 0 mm 1 mps 643 mmHg 78%
    06:00 +12°C° 0 mm 1 mps 643 mmHg 78%
    07:00 +14°C° 0 mm 1 mps 643 mmHg 68%
    08:00 +18°C° 0 mm 1 mps 644 mmHg 57%
    09:00 +20°C° 0 mm 1 mps 644 mmHg 46%
    10:00 +20°C° 0 mm 2 mps 644 mmHg 40%
    11:00 +21°C° 0 mm 2 mps 645 mmHg 35%
    12:00 +24°C° 0 mm 2 mps 645 mmHg 29%
    13:00 +24°C° 0 mm 2 mps 644 mmHg 28%
    14:00 +24°C° 0 mm 2 mps 644 mmHg 28%
    15:00 +24°C° 0 mm 2 mps 644 mmHg 27%
    16:00 +23°C° 0 mm 2 mps 643 mmHg 33%
    17:00 +20°C° 0 mm 2 mps 643 mmHg 39%
    18:00 +18°C° 0 mm 2 mps 642 mmHg 45%
    19:00 +17°C° 0.1 mm 2 mps 643 mmHg 51%
    20:00 +17°C° 0.1 mm 2 mps 643 mmHg 58%
    21:00 +16°C° 0.1 mm 2 mps 643 mmHg 64%
    22:00 +16°C° 0.1 mm 2 mps 643 mmHg 66%
    23:00 +16°C° 0.1 mm 2 mps 643 mmHg 68%

    Tomorrow, 27 September, Wednesday

    Time Temperature Precipitation Wind Pressure Humidity
    00:00 +16°C° 0.1 mm 2 mps 643 mmHg 70%
    01:00 +15°C° 0.1 mm 2 mps 643 mmHg 71%
    02:00 +15°C° 0.1 mm 2 mps 643 mmHg 73%
    03:00 +15°C° 0.1 mm 2 mps 642 mmHg 74%
    04:00 +14°C° 0.1 mm 1 mps 642 mmHg 75%
    05:00 +14°C° 0.1 mm 1 mps 642 mmHg 75%
    06:00 +13°C° 0.1 mm 1 mps 642 mmHg 75%
    07:00 +15°C° 0.1 mm 1 mps 642 mmHg 66%
    08:00 +18°C° 0.1 mm 1 mps 643 mmHg 58%
    09:00 +20°C° 0.1 mm 1 mps 643 mmHg 49%
    10:00 +20°C° 0.1 mm 2 mps 643 mmHg 45%
    11:00 +21°C° 0.1 mm 2 mps 643 mmHg 42%
    12:00 +22°C° 0.1 mm 3 mps 643 mmHg 38%
    13:00 +22°C° 0.3 mm 3 mps 643 mmHg 38%
    14:00 +22°C° 0.3 mm 3 mps 643 mmHg 38%
    15:00 +22°C° 0.3 mm 3 mps 642 mmHg 38%
    16:00 +21°C° 0.4 mm 3 mps 642 mmHg 46%
    17:00 +19°C° 0.4 mm 3 mps 642 mmHg 53%
    18:00 +17°C° 0.4 mm 3 mps 641 mmHg 61%
    19:00 +16°C° 0.2 mm 3 mps 641 mmHg 65%
    20:00 +16°C° 0.2 mm 3 mps 642 mmHg 70%
    21:00 +14°C° 0.2 mm 3 mps 642 mmHg 74%
    22:00 +14°C° 0.1 mm 3 mps 642 mmHg 76%
    23:00 +14°C° 0.1 mm 2 mps 641 mmHg 78%

    Day after tomorrow, 28 September, Thursday

    Time Temperature Precipitation Wind Pressure Humidity
    00:00 +13°C° 0.1 mm 2 mps 641 mmHg 80%
    01:00 +13°C° 0.1 mm 2 mps 641 mmHg 80%
    02:00 +13°C° 0.1 mm 2 mps 641 mmHg 80%
    03:00 +13°C° 0.1 mm 2 mps 641 mmHg 81%
    04:00 +12°C° 0.1 mm 2 mps 641 mmHg 81%
    05:00 +12°C° 0.1 mm 1 mps 641 mmHg 81%
    06:00 +12°C° 0.1 mm 1 mps 641 mmHg 82%
    07:00 +13°C° 0 mm 1 mps 642 mmHg 75%
    08:00 +15°C° 0 mm 1 mps 643 mmHg 68%
    09:00 +16°C° 0 mm 1 mps 643 mmHg 61%
    10:00 +17°C° 0.2 mm 2 mps 644 mmHg 58%
    11:00 +18°C° 0.2 mm 2 mps 644 mmHg 55%
    12:00 +19°C° 0.2 mm 2 mps 644 mmHg 52%
    13:00 +19°C° 0.3 mm 2 mps 644 mmHg 52%
    14:00 +19°C° 0.3 mm 2 mps 644 mmHg 52%
    15:00 +19°C° 0.3 mm 2 mps 643 mmHg 52%
    16:00 +18°C° 0.3 mm 3 mps 643 mmHg 58%
    17:00 +16°C° 0.3 mm 3 mps 643 mmHg 64%
    18:00 +14°C° 0.3 mm 3 mps 643 mmHg 70%
    19:00 +13°C° 0.2 mm 3 mps 643 mmHg 72%
    20:00 +13°C° 0.2 mm 3 mps 644 mmHg 74%
    21:00 +12°C° 0.2 mm 3 mps 644 mmHg 76%
    22:00 +12°C° 0.1 mm 3 mps 644 mmHg 77%
    23:00 +11°C° 0.1 mm 3 mps 644 mmHg 77%

    29 September, Friday

    Time Temperature Precipitation Wind Pressure Humidity
    00:00 +11°C° 0.1 mm 3 mps 644 mmHg 78%
    01:00 +12°C° 0 mm 2 mps 644 mmHg 79%
    02:00 +10°C° 0 mm 2 mps 644 mmHg 80%
    03:00 +10°C° 0 mm 2 mps 644 mmHg 81%
    04:00 +10°C° 0 mm 2 mps 643 mmHg 81%
    05:00 +10°C° 0 mm 2 mps 643 mmHg 81%
    06:00 +9°C° 0 mm 2 mps 643 mmHg 82%
    07:00 +12°C° 0 mm 2 mps 644 mmHg 74%
    08:00 +14°C° 0 mm 2 mps 644 mmHg 67%
    09:00 +15°C° 0 mm 2 mps 645 mmHg 60%
    10:00 +16°C° 0 mm 2 mps 644 mmHg 56%
    11:00 +17°C° 0 mm 2 mps 644 mmHg 52%
    12:00 +18°C° 0 mm 3 mps 644 mmHg 48%
    13:00 +19°C° 0.1 mm 3 mps 644 mmHg 49%
    14:00 +19°C° 0.1 mm 3 mps 643 mmHg 49%
    15:00 +19°C° 0.1 mm 3 mps 643 mmHg 49%
    16:00 +17°C° 0.2 mm 2 mps 643 mmHg 55%
    17:00 +16°C° 0.2 mm 2 mps 642 mmHg 61%
    18:00 +15°C° 0.2 mm 2 mps 642 mmHg 67%
    19:00 +14°C° 0.2 mm 2 mps 642 mmHg 70%
    20:00 +14°C° 0.2 mm 2 mps 642 mmHg 73%
    21:00 +12°C° 0.2 mm 3 mps 642 mmHg 76%
    22:00 +12°C° 0.1 mm 3 mps 642 mmHg 76%
    23:00 +12°C° 0.1 mm 2 mps 642 mmHg 77%

    30 September, Saturday

    Time Temperature Precipitation Wind Pressure Humidity
    00:00 +12°C° 0.1 mm 2 mps 641 mmHg 77%
    01:00 +12°C° 0 mm 2 mps 641 mmHg 77%
    02:00 +10°C° 0 mm 2 mps 641 mmHg 77%
    03:00 +10°C° 0 mm 2 mps 641 mmHg 77%
    04:00 +10°C° 0 mm 2 mps 641 mmHg 76%
    05:00 +10°C° 0 mm 2 mps 640 mmHg 75%
    06:00 +10°C° 0 mm 2 mps 640 mmHg 74%
    07:00 +12°C° 0 mm 2 mps 641 mmHg 66%
    08:00 +14°C° 0 mm 2 mps 641 mmHg 58%
    09:00 +16°C° 0 mm 2 mps 642 mmHg 51%
    10:00 +16°C° 0.3 mm 2 mps 641 mmHg 51%
    11:00 +17°C° 0.3 mm 2 mps 641 mmHg 50%
    12:00 +17°C° 0.3 mm 2 mps 641 mmHg 50%
    13:00 +17°C° 0.5 mm 2 mps 641 mmHg 51%
    14:00 +17°C° 0.5 mm 2 mps 640 mmHg 53%
    15:00 +17°C° 0.5 mm 2 mps 640 mmHg 54%
    16:00 +16°C° 0.6 mm 2 mps 640 mmHg 59%
    17:00 +15°C° 0.6 mm 2 mps 639 mmHg 65%
    18:00 +14°C° 0.6 mm 1 mps 639 mmHg 70%
    19:00 +14°C° 0.2 mm 1 mps 639 mmHg 72%
    20:00 +13°C° 0.2 mm 1 mps 640 mmHg 75%
    21:00 +13°C° 0.2 mm 1 mps 640 mmHg 77%
    22:00 +12°C° 0 mm 1 mps 640 mmHg 78%
    23:00 +12°C° 0 mm 1 mps 640 mmHg 79%

    1 October, Sunday

    Time Temperature Precipitation Wind Pressure Humidity
    00:00 +11°C° 0 mm 1 mps 640 mmHg 80%
    01:00 +11°C° 0 mm 1 mps 640 mmHg 79%
    02:00 +11°C° 0 mm 1 mps 640 mmHg 78%
    03:00 +11°C° 0 mm 1 mps 640 mmHg 76%
    04:00 +10°C° 0 mm 1 mps 640 mmHg 75%
    05:00 +10°C° 0 mm 1 mps 640 mmHg 74%
    06:00 +10°C° 0 mm 1 mps 640 mmHg 73%
    07:00 +12°C° 0 mm 2 mps 641 mmHg 65%
    08:00 +14°C° 0 mm 2 mps 642 mmHg 58%
    09:00 +16°C° 0 mm 2 mps 643 mmHg 51%
    10:00 +17°C° 0 mm 2 mps 643 mmHg 47%
    11:00 +19°C° 0 mm 3 mps 643 mmHg 43%
    12:00 +20°C° 0 mm 3 mps 643 mmHg 40%
    13:00 +20°C° 0.1 mm 3 mps 642 mmHg 40%
    14:00 +20°C° 0.1 mm 3 mps 642 mmHg 40%
    15:00 +20°C° 0.1 mm 3 mps 642 mmHg 40%
    16:00 +18°C° 0.2 mm 2 mps 642 mmHg 45%
    17:00 +17°C° 0.2 mm 2 mps 641 mmHg 51%
    18:00 +15°C° 0.2 mm 1 mps 641 mmHg 56%
    19:00 +15°C° 0.1 mm 1 mps 641 mmHg 59%
    20:00 +14°C° 0.1 mm 1 mps 641 mmHg 62%
    21:00 +14°C° 0.1 mm 1 mps 641 mmHg 64%
    22:00 +13°C° 0.1 mm 1 mps 641 mmHg 66%
    23:00 +13°C° 0.1 mm 1 mps 641 mmHg 67%
    Show more